カタログに戻る

COSMOS 407

運用中軍事LEO
NORAD 5174·PAYLOAD·🇷🇺 Russia

打ち上げ Apr 23, 1971 から Plesetsk Cosmodrome

Loading…

次のパス (今後24時間)

TLE

最新Source: Space-Track

元期: Sep 14, 2026, 13:56 UTC

1 05174U 71035A   26257.58117784  .00000074  00000-0  35625-4 0  9992
2 05174  74.0441 306.9485 0017151 107.2273 253.0758 14.34266603893400

AllMySatでCOSMOS 407をリアルタイム追跡

Download on the App Store